When you browse on this site, cookies collect data to enhance your experience and personalize the content and advertising you see.
Visit our Privacy Policy to learn more. By continuing to use the site, you agree to this use of cookies and data.
  • In Schweiz
  • Länderverzeichnis
  • Für 7 Tage
  • Wassertemperatur
  • Wetterkarte
  • Widgets
  • user-avatar
    Anmelden

    Stündliche Wetter Stepanakert

    Heute, 2 Juni, Dienstag

    Zeit Temperatur Niederschläge Wind Luftdruck Luftfeuchtigkeit
    00:00 +19°C° 0 mm 2 m/S 689 mmHg 67%
    01:00 +19°C° 0 mm 2 m/S 689 mmHg 65%
    02:00 +19°C° 0 mm 2 m/S 689 mmHg 62%
    03:00 +18°C° 0 mm 2 m/S 689 mmHg 60%
    04:00 +19°C° 0 mm 2 m/S 689 mmHg 59%
    05:00 +20°C° 0 mm 2 m/S 689 mmHg 58%
    06:00 +21°C° 0 mm 2 m/S 689 mmHg 57%
    07:00 +24°C° 0 mm 1 m/S 689 mmHg 52%
    08:00 +26°C° 0 mm 1 m/S 689 mmHg 47%
    09:00 +28°C° 0 mm 1 m/S 690 mmHg 42%
    10:00 +29°C° 0 mm 2 m/S 689 mmHg 40%
    11:00 +30°C° 0 mm 2 m/S 689 mmHg 38%
    12:00 +31°C° 0 mm 2 m/S 689 mmHg 37%
    13:00 +31°C° 0 mm 3 m/S 689 mmHg 37%
    14:00 +31°C° 0 mm 3 m/S 688 mmHg 38%
    15:00 +33°C° 0 mm 3 m/S 688 mmHg 39%
    16:00 +30°C° 0.2 mm 3 m/S 688 mmHg 46%
    17:00 +28°C° 0.2 mm 4 m/S 687 mmHg 53%
    18:00 +27°C° 0.2 mm 4 m/S 687 mmHg 60%
    19:00 +25°C° 0 mm 3 m/S 687 mmHg 64%
    20:00 +22°C° 0 mm 3 m/S 687 mmHg 68%
    21:00 +20°C° 0 mm 2 m/S 687 mmHg 71%
    22:00 +20°C° 0 mm 2 m/S 687 mmHg 71%
    23:00 +20°C° 0 mm 2 m/S 686 mmHg 71%

    Morgen, 3 Juni, Mittwoch

    Zeit Temperatur Niederschläge Wind Luftdruck Luftfeuchtigkeit
    00:00 +19°C° 0 mm 2 m/S 686 mmHg 70%
    01:00 +19°C° 0 mm 2 m/S 686 mmHg 70%
    02:00 +19°C° 0 mm 2 m/S 686 mmHg 70%
    03:00 +20°C° 0 mm 1 m/S 686 mmHg 70%
    04:00 +20°C° 0 mm 1 m/S 687 mmHg 68%
    05:00 +21°C° 0 mm 1 m/S 687 mmHg 67%
    06:00 +21°C° 0 mm 2 m/S 687 mmHg 65%
    07:00 +24°C° 0 mm 1 m/S 687 mmHg 58%
    08:00 +26°C° 0 mm 1 m/S 688 mmHg 51%
    09:00 +28°C° 0 mm 1 m/S 688 mmHg 43%
    10:00 +30°C° 0 mm 2 m/S 688 mmHg 39%
    11:00 +31°C° 0 mm 2 m/S 688 mmHg 35%
    12:00 +33°C° 0 mm 3 m/S 688 mmHg 31%
    13:00 +29°C° 0.5 mm 4 m/S 687 mmHg 40%
    14:00 +27°C° 0.5 mm 6 m/S 687 mmHg 49%
    15:00 +23°C° 0.5 mm 7 m/S 686 mmHg 58%
    16:00 +23°C° 0.5 mm 6 m/S 686 mmHg 59%
    17:00 +23°C° 0.5 mm 5 m/S 687 mmHg 60%
    18:00 +22°C° 0.5 mm 3 m/S 687 mmHg 61%
    19:00 +21°C° 0.1 mm 3 m/S 687 mmHg 61%
    20:00 +21°C° 0.1 mm 3 m/S 688 mmHg 61%
    21:00 +20°C° 0.1 mm 3 m/S 688 mmHg 61%
    22:00 +20°C° 0 mm 3 m/S 688 mmHg 60%
    23:00 +19°C° 0 mm 2 m/S 688 mmHg 59%

    übermorgen, 4 Juni, Donnerstag

    Zeit Temperatur Niederschläge Wind Luftdruck Luftfeuchtigkeit
    00:00 +19°C° 0 mm 2 m/S 689 mmHg 58%
    01:00 +19°C° 0 mm 2 m/S 689 mmHg 58%
    02:00 +18°C° 0 mm 2 m/S 689 mmHg 59%
    03:00 +19°C° 0 mm 1 m/S 689 mmHg 59%
    04:00 +20°C° 0 mm 1 m/S 690 mmHg 60%
    05:00 +21°C° 0 mm 1 m/S 690 mmHg 61%
    06:00 +21°C° 0 mm 1 m/S 691 mmHg 62%
    07:00 +23°C° 0 mm 1 m/S 691 mmHg 59%
    08:00 +24°C° 0 mm 1 m/S 691 mmHg 55%
    09:00 +26°C° 0 mm 2 m/S 691 mmHg 51%
    10:00 +26°C° 0 mm 2 m/S 691 mmHg 50%
    11:00 +27°C° 0 mm 2 m/S 691 mmHg 49%
    12:00 +28°C° 0 mm 3 m/S 691 mmHg 48%
    13:00 +28°C° 0 mm 3 m/S 691 mmHg 47%
    14:00 +29°C° 0 mm 3 m/S 691 mmHg 46%
    15:00 +29°C° 0 mm 3 m/S 690 mmHg 45%
    16:00 +28°C° 0 mm 2 m/S 690 mmHg 52%
    17:00 +27°C° 0 mm 2 m/S 690 mmHg 59%
    18:00 +26°C° 0 mm 2 m/S 690 mmHg 65%
    19:00 +24°C° 0 mm 2 m/S 691 mmHg 70%
    20:00 +22°C° 0 mm 1 m/S 691 mmHg 75%
    21:00 +20°C° 0 mm 1 m/S 691 mmHg 79%
    22:00 +20°C° 0 mm 1 m/S 691 mmHg 78%
    23:00 +19°C° 0 mm 2 m/S 691 mmHg 77%

    5 Juni, Freitag

    Zeit Temperatur Niederschläge Wind Luftdruck Luftfeuchtigkeit
    00:00 +19°C° 0 mm 2 m/S 691 mmHg 76%
    01:00 +18°C° 0 mm 2 m/S 691 mmHg 73%
    02:00 +18°C° 0 mm 2 m/S 691 mmHg 70%
    03:00 +18°C° 0 mm 2 m/S 691 mmHg 67%
    04:00 +20°C° 0 mm 1 m/S 691 mmHg 67%
    05:00 +20°C° 0 mm 1 m/S 692 mmHg 66%
    06:00 +21°C° 0 mm 1 m/S 692 mmHg 66%
    07:00 +23°C° 0 mm 1 m/S 693 mmHg 62%
    08:00 +24°C° 0 mm 1 m/S 693 mmHg 58%
    09:00 +26°C° 0 mm 2 m/S 693 mmHg 54%
    10:00 +27°C° 0 mm 2 m/S 693 mmHg 53%
    11:00 +28°C° 0 mm 2 m/S 693 mmHg 51%
    12:00 +29°C° 0 mm 3 m/S 693 mmHg 50%
    13:00 +29°C° 0.2 mm 3 m/S 693 mmHg 48%
    14:00 +29°C° 0.2 mm 3 m/S 693 mmHg 46%
    15:00 +30°C° 0.2 mm 3 m/S 692 mmHg 44%
    16:00 +29°C° 0.2 mm 2 m/S 692 mmHg 49%
    17:00 +28°C° 0.2 mm 2 m/S 692 mmHg 54%
    18:00 +27°C° 0.2 mm 2 m/S 692 mmHg 58%
    19:00 +25°C° 0.2 mm 1 m/S 692 mmHg 63%
    20:00 +23°C° 0.2 mm 1 m/S 693 mmHg 68%
    21:00 +21°C° 0.2 mm 1 m/S 693 mmHg 73%
    22:00 +20°C° 0.3 mm 1 m/S 693 mmHg 74%
    23:00 +20°C° 0.3 mm 1 m/S 693 mmHg 75%

    6 Juni, Samstag

    Zeit Temperatur Niederschläge Wind Luftdruck Luftfeuchtigkeit
    00:00 +19°C° 0.3 mm 1 m/S 693 mmHg 76%
    01:00 +19°C° 0.2 mm 1 m/S 693 mmHg 76%
    02:00 +18°C° 0.2 mm 1 m/S 693 mmHg 77%
    03:00 +18°C° 0.2 mm 1 m/S 693 mmHg 78%
    04:00 +19°C° 0.3 mm 1 m/S 694 mmHg 77%
    05:00 +19°C° 0.3 mm 1 m/S 694 mmHg 77%
    06:00 +20°C° 0.3 mm 1 m/S 694 mmHg 77%
    07:00 +20°C° 0.1 mm 2 m/S 694 mmHg 72%
    08:00 +21°C° 0.1 mm 2 m/S 694 mmHg 67%
    09:00 +22°C° 0.1 mm 3 m/S 695 mmHg 62%
    10:00 +24°C° 0.1 mm 3 m/S 694 mmHg 62%
    11:00 +24°C° 0.1 mm 3 m/S 694 mmHg 61%
    12:00 +24°C° 0.1 mm 3 m/S 694 mmHg 61%
    13:00 +25°C° 0.1 mm 2 m/S 694 mmHg 60%
    14:00 +25°C° 0.1 mm 2 m/S 693 mmHg 59%
    15:00 +25°C° 0.1 mm 2 m/S 693 mmHg 58%
    16:00 +25°C° 0.1 mm 2 m/S 693 mmHg 61%
    17:00 +25°C° 0.1 mm 2 m/S 693 mmHg 64%
    18:00 +24°C° 0.1 mm 2 m/S 693 mmHg 67%
    19:00 +23°C° 0.5 mm 2 m/S 693 mmHg 72%
    20:00 +21°C° 0.5 mm 1 m/S 694 mmHg 77%
    21:00 +20°C° 0.5 mm 1 m/S 694 mmHg 82%
    22:00 +19°C° 0.2 mm 1 m/S 694 mmHg 81%
    23:00 +19°C° 0.2 mm 1 m/S 694 mmHg 81%

    7 Juni, Sonntag

    Zeit Temperatur Niederschläge Wind Luftdruck Luftfeuchtigkeit
    00:00 +18°C° 0.2 mm 2 m/S 693 mmHg 81%
    01:00 +17°C° 0 mm 2 m/S 693 mmHg 81%
    02:00 +17°C° 0 mm 2 m/S 693 mmHg 80%
    03:00 +17°C° 0 mm 2 m/S 693 mmHg 79%
    04:00 +19°C° 0 mm 1 m/S 694 mmHg 77%
    05:00 +20°C° 0 mm 1 m/S 694 mmHg 75%
    06:00 +20°C° 0 mm 1 m/S 694 mmHg 73%
    07:00 +22°C° 0 mm 1 m/S 694 mmHg 68%
    08:00 +24°C° 0 mm 1 m/S 694 mmHg 62%
    09:00 +25°C° 0 mm 1 m/S 695 mmHg 57%
    10:00 +26°C° 0 mm 2 m/S 694 mmHg 54%
    11:00 +27°C° 0 mm 2 m/S 694 mmHg 52%
    12:00 +28°C° 0 mm 2 m/S 694 mmHg 49%
    13:00 +28°C° 0 mm 2 m/S 694 mmHg 49%
    14:00 +28°C° 0 mm 2 m/S 694 mmHg 49%
    15:00 +29°C° 0 mm 2 m/S 694 mmHg 48%
    16:00 +28°C° 0 mm 2 m/S 693 mmHg 52%
    17:00 +27°C° 0 mm 2 m/S 693 mmHg 55%
    18:00 +27°C° 0 mm 1 m/S 693 mmHg 59%
    19:00 +25°C° 0 mm 1 m/S 693 mmHg 61%
    20:00 +24°C° 0 mm 1 m/S 693 mmHg 62%
    21:00 +22°C° 0 mm 1 m/S 693 mmHg 64%
    22:00 +21°C° 0 mm 2 m/S 693 mmHg 64%
    23:00 +20°C° 0 mm 2 m/S 693 mmHg 65%
    Mehr zeigen